Location: Artiguedieu
(43.5000°N, 0.5454°E)
Time: 10:37:18
(UTC+00:00)

Vanguard 1 Rocket - Pass Details

Date: 29 July 2021
Orbit: 650 x 4226 km, 34.3° (Epoch: 24 September)

Event Time Altitude Azimuth Distance (km) Brightness Sun altitude
Rises 10:20:12 0° 231° (SW) 7,907 12.1 56.9°
Reaches altitude 10° 10:26:40 10° 225° (SW) 6,425 11.8 57.8°
Maximum altitude 10:42:56 41° 165° (SSE) 2,958 11.5 59.8°
Drops below altitude 10° 10:51:55 10° 99° (E) 3,628 10.9 60.8°
Sets 10:54:27 0° 91° (E) 4,276 11.1 61.1°
